TimeMDT,TemperatureF,Dew PointF,Humidity,Sea Level PressureIn,VisibilityMPH,Wind Direction,Wind SpeedMPH,Gust SpeedMPH,PrecipitationIn,Events,Conditions,WindDirDegrees,DateUTC
12:53 AM,48.9,34.0,56,30.14,10.0,North,15.0,-,N/A,,Scattered Clouds,360,2012-10-04 06:53:00
1:53 AM,46.0,32.0,58,30.18,10.0,North,11.5,-,N/A,,Clear,350,2012-10-04 07:53:00
2:53 AM,44.1,28.9,55,30.20,10.0,NNW,17.3,23.0,N/A,,Clear,340,2012-10-04 08:53:00
3:53 AM,42.1,28.9,60,30.21,10.0,North,12.7,-,N/A,,Clear,350,2012-10-04 09:53:00
4:53 AM,41.0,28.0,60,30.24,10.0,NNW,11.5,-,N/A,,Clear,340,2012-10-04 10:53:00
5:53 AM,39.0,28.0,65,30.25,10.0,NNW,8.1,-,N/A,,Clear,330,2012-10-04 11:53:00
6:53 AM,36.0,28.0,73,30.30,10.0,WNW,5.8,-,N/A,,Clear,290,2012-10-04 12:53:00
7:53 AM,41.0,28.9,62,30.30,10.0,WNW,8.1,-,N/A,,Clear,290,2012-10-04 13:53:00
8:53 AM,45.0,28.0,52,30.30,10.0,North,11.5,-,N/A,,Clear,360,2012-10-04 14:53:00
9:53 AM,46.9,27.0,46,30.31,10.0,North,12.7,-,N/A,,Clear,360,2012-10-04 15:53:00
10:53 AM,50.0,28.0,43,30.30,10.0,North,8.1,-,N/A,,Clear,10,2012-10-04 16:53:00
11:53 AM,53.1,27.0,37,30.28,10.0,ENE,8.1,-,N/A,,Clear,60,2012-10-04 17:53:00
12:53 PM,55.0,27.0,34,30.25,10.0,East,9.2,-,N/A,,Clear,80,2012-10-04 18:53:00
1:53 PM,55.0,26.1,33,30.21,10.0,ENE,5.8,-,N/A,,Clear,60,2012-10-04 19:53:00
2:53 PM,57.9,27.0,31,30.18,10.0,NE,4.6,-,N/A,,Clear,40,2012-10-04 20:53:00
3:53 PM,57.9,26.1,30,30.17,10.0,ENE,9.2,-,N/A,,Clear,70,2012-10-04 21:53:00
4:53 PM,57.9,26.1,30,30.17,10.0,East,6.9,-,N/A,,Clear,90,2012-10-04 22:53:00
5:53 PM,57.0,26.1,30,30.19,10.0,East,8.1,-,N/A,,Clear,100,2012-10-04 23:53:00
6:53 PM,52.0,27.0,38,30.21,10.0,East,5.8,-,N/A,,Clear,100,2012-10-05 00:53:00
7:53 PM,50.0,28.0,43,30.20,10.0,ESE,10.4,-,N/A,,Clear,110,2012-10-05 01:53:00
8:53 PM,48.9,28.0,44,30.22,10.0,ESE,8.1,-,N/A,,Clear,110,2012-10-05 02:53:00
9:53 PM,46.0,28.0,50,30.23,10.0,East,5.8,-,N/A,,Clear,100,2012-10-05 03:53:00
10:53 PM,45.0,28.0,52,30.20,10.0,ESE,9.2,-,N/A,,Clear,120,2012-10-05 04:53:00
11:53 PM,44.1,28.9,55,30.19,10.0,ESE,8.1,-,N/A,,Clear,110,2012-10-05 05:53:00